Regional Weather Roundup
Issued by NWS Lake Charles, LA

Home | Current Version | Previous Version | Text Only | Print | Product List | Glossary On
Versions: 1 2 3 4 5 6 7 8 9 10 11 12 13 14 15 16 17 18 19 20 21 22 23 24 25 26 27 28 29 30 31 32 33 34 35 36 37 38 39 40 41 42 43 44 45 46 47 48 49 50
000
ASUS44 KLCH 281110
RWRLCH
RWRLCH
REGIONAL WEATHER ROUNDUP
NATIONAL WEATHER SERVICE LAKE CHARLES LA
600 AM CDT THU AUG 28 2014

Note: "fair" indicates few or no clouds below 12,000 feet with no
significant weather and/or obstructions to visibility.


ACROSS SOUTHEAST TEXAS

CITY           SKY/WX    TMP DP  RH WIND       PRES   REMARKS
BEAUMONT       PTCLDY    79  75  87 E8        29.92S
BEAUMONT CITY    N/A     75  74  96 E3        29.93S
ORANGE         MOSUNNY   76  76 100 NE3       29.94F
JASPER         CLEAR     71  69  93 CALM      29.98R
$$

ACROSS CENTRAL LOUISIANA

CITY           SKY/WX    TMP DP  RH WIND       PRES   REMARKS
LEESVILLE      PTCLDY    73  71  93 CALM      29.97R
FULLERTON        N/A     72  69  90 CALM      29.95R FOG
ALEXANDRIA INT PTCLDY    72  71  97 CALM      29.96R FOG
ESLER FIELD    CLEAR     73  70  90 CALM      29.98R
DERIDDER         N/A     73  71  93 CALM      29.98R
OAKDALE        SUNNY     70  69  96 CALM      29.96S FOG
OPELOUSAS        N/A    N/A N/A N/A CALM      29.96S
$$

ACROSS SOUTHWEST AND SOUTH CENTRAL LOUISIANA

CITY           SKY/WX    TMP DP  RH WIND       PRES   REMARKS
SULPHUR        MOSUNNY   78  76  95 NE5       29.94F
LAKE CHARLES   CLEAR     76  73  91 NE8       29.94S
CHENNAULT INT  CLEAR     75  72  88 NE5       29.96R
CAMERON PHI      N/A     79  77  94 E8        29.93S
DEQUINCY         N/A     73  72  94 CALM      29.95S
JENNINGS         N/A     75  74  97 E3        29.95S
LAFAYETTE      PTCLDY    76  74  93 CALM      29.96S
NEW IBERIA     PTCLDY    77  75  93 E5        29.96S
ABBEVILLE        N/A     74  74  98 NE3       29.96R
PATTERSON        N/A     75  73  94 NE6       29.98S
SALT POINT       N/A     80  77  90 CALM      29.94S
$$

SELECTED SITES ACROSS THE REGION

CITY           SKY/WX    TMP DP  RH WIND       PRES   REMARKS
HOUSTON BUSH   PTCLDY    77  73  88 N3        29.92S
HOUSTON HOBBY  PTCLDY    79  73  83 S3        29.91S
GALVESTON      LGT RAIN  79  76  90 E6        29.90F
COLLEGE STAT   CLEAR     76  71  85 NE3       29.94S
CONROE         CLEAR     72  70  93 CALM      29.94S
HUNTSVILLE     CLEAR     73  70  90 CALM      29.94F
LUFKIN         CLEAR     75  71  87 CALM      29.96R
SHREVEPORT     PTCLDY    73  68  84 CALM      29.97S
MONROE         CLEAR     70  67  90 CALM      29.99R
NATCHEZ MS     PTCLDY    73  70  88 CALM      30.00R
BATON ROUGE    PTCLDY    76  74  93 NE5       29.97S
N.O. INTL ARPT MOCLDY    80  74  81 E3        29.97R
SLIDELL        PTCLDY    75  72  90 CALM      29.97S
$$

MARINE REPORTS

STATION/POSITION TIME  TEMP    WIND        PRES    VSBY  WAVE
                       AIR SEA DIR/SP/G                  HT/PER
                 (UTC) (F)     (DEG/KT/KT) (MB)    (MI)  (FT/S)
BUOY 30 S HIGH I 1100   85 87  100/ 14/ 16 1011.9F         3/ 5
SEA RIM ST PARK  1100   78      70/  5/  6 1013.4F
PORT ARTHUR      1100      87   80/  6/ 11 1013.3S
SABINE PASS N    1100   80 84  100/ 13/ 16 1013.2F
TEXAS POINT      1100   84 85  110/ 15/ 16 1013.2F
CALCASIEU PASS   1100   78 85   80/  8/  9 1014.3S
LK CHARLES BEACH 1100   77 88              1014.7S
MARSH ISLAND     NOT AVBL
FRESH WATER LOCK 1100   77 84   40/  4/  5 1013.6S
AMERADA PASS     1100   78 85   80/  4/  4 1014.0R
$$


USA.gov is the U.S. government's official web portal to all federal, state and local government web resources and services.